TimeEST,TemperatureF,Dew PointF,Humidity,Sea Level PressureIn,VisibilityMPH,Wind Direction,Wind SpeedMPH,Gust SpeedMPH,PrecipitationIn,Events,Conditions,WindDirDegrees,DateUTC
12:51 AM,23.0,17.1,78,30.19,10.0,Calm,Calm,-,N/A,,Partly Cloudy,0,2013-01-16 05:51:00
1:51 AM,23.0,18.0,81,30.15,10.0,Calm,Calm,-,N/A,,Partly Cloudy,0,2013-01-16 06:51:00
2:51 AM,21.9,17.1,82,30.13,10.0,Calm,Calm,-,N/A,,Mostly Cloudy,0,2013-01-16 07:51:00
3:51 AM,21.9,18.0,85,30.10,10.0,Calm,Calm,-,N/A,,Overcast,0,2013-01-16 08:51:00
4:51 AM,21.9,18.0,85,30.07,10.0,Calm,Calm,-,N/A,,Overcast,0,2013-01-16 09:51:00
5:51 AM,21.9,18.0,85,30.04,10.0,Calm,Calm,-,N/A,,Overcast,0,2013-01-16 10:51:00
6:51 AM,21.9,18.0,85,30.04,10.0,Calm,Calm,-,N/A,,Overcast,0,2013-01-16 11:51:00
7:51 AM,21.9,18.0,85,30.04,10.0,Calm,Calm,-,N/A,,Overcast,0,2013-01-16 12:51:00
8:51 AM,23.0,18.0,81,30.02,9.0,Calm,Calm,-,0.00,Snow,Light Snow,0,2013-01-16 13:51:00
9:51 AM,23.0,19.0,85,29.99,6.0,SSW,3.5,-,0.00,Snow,Light Snow,200,2013-01-16 14:51:00
10:22 AM,23.0,19.4,86,29.90,2.5,South,4.6,-,0.00,Snow,Light Snow,180,2013-01-16 15:22:00
10:39 AM,23.0,19.4,86,29.88,1.5,South,4.6,-,0.01,Snow,Light Snow,190,2013-01-16 15:39:00
10:51 AM,24.1,19.9,84,29.95,1.0,South,3.5,-,0.01,Snow,Light Snow,190,2013-01-16 15:51:00
10:58 AM,24.8,21.2,86,29.87,1.0,South,3.5,-,0.00,Snow,Light Snow,190,2013-01-16 15:58:00
11:05 AM,24.8,21.2,86,29.87,0.8,South,3.5,-,0.00,Snow,Light Snow,190,2013-01-16 16:05:00
11:51 AM,24.1,21.9,91,29.89,0.5,Calm,Calm,-,0.01,Fog-Snow,Snow,0,2013-01-16 16:51:00
12:10 PM,24.8,21.2,86,29.80,1.0,Calm,Calm,-,0.00,Snow,Light Snow,0,2013-01-16 17:10:00
12:42 PM,24.8,23.0,93,29.78,1.5,Calm,Calm,-,0.01,Snow,Light Snow,0,2013-01-16 17:42:00
12:51 PM,25.0,23.0,92,29.84,1.0,Calm,Calm,-,0.01,Snow,Light Snow,0,2013-01-16 17:51:00
1:37 PM,24.8,24.8,100,29.73,2.0,Calm,Calm,-,0.00,Snow,Light Snow,0,2013-01-16 18:37:00
1:48 PM,26.6,24.8,93,29.73,3.0,Calm,Calm,-,0.00,Snow,Light Snow,0,2013-01-16 18:48:00
1:51 PM,26.1,24.1,92,29.79,3.0,Calm,Calm,-,0.00,Snow,Light Snow,0,2013-01-16 18:51:00
2:27 PM,26.6,24.8,93,29.72,1.8,Calm,Calm,-,0.00,Snow,Light Snow,0,2013-01-16 19:27:00
2:51 PM,27.0,25.0,92,29.79,2.0,SSW,3.5,-,0.00,Snow,Light Snow,200,2013-01-16 19:51:00
3:08 PM,26.6,24.8,93,29.71,4.0,Calm,Calm,-,0.00,Snow,Light Snow,0,2013-01-16 20:08:00
3:51 PM,28.0,24.1,85,29.78,9.0,SSW,9.2,-,0.00,Snow,Light Snow,210,2013-01-16 20:51:00
4:01 PM,28.4,24.8,86,29.70,10.0,SSW,9.2,-,0.00,,Overcast,210,2013-01-16 21:01:00
4:51 PM,28.0,25.0,88,29.76,10.0,SSW,8.1,-,0.00,,Overcast,210,2013-01-16 21:51:00
5:07 PM,28.4,24.8,86,29.69,10.0,SSW,10.4,-,N/A,,Overcast,210,2013-01-16 22:07:00
5:51 PM,28.0,25.0,88,29.75,10.0,SSW,10.4,-,N/A,,Overcast,200,2013-01-16 22:51:00
6:51 PM,28.0,25.0,88,29.75,10.0,SW,11.5,-,N/A,,Overcast,220,2013-01-16 23:51:00
7:51 PM,28.0,24.1,85,29.76,10.0,SW,9.2,19.6,N/A,,Overcast,230,2013-01-17 00:51:00
8:32 PM,28.4,24.8,86,29.69,10.0,SW,12.7,17.3,N/A,,Overcast,230,2013-01-17 01:32:00
8:51 PM,28.0,24.1,85,29.76,10.0,SW,11.5,-,N/A,,Overcast,230,2013-01-17 01:51:00
9:51 PM,27.0,23.0,85,29.76,10.0,SW,9.2,-,N/A,,Overcast,220,2013-01-17 02:51:00
10:51 PM,28.0,23.0,81,29.76,10.0,SW,9.2,-,N/A,,Overcast,220,2013-01-17 03:51:00
11:04 PM,28.4,23.0,80,29.69,10.0,SW,11.5,-,N/A,,Overcast,220,2013-01-17 04:04:00
11:26 PM,28.4,23.0,80,29.69,10.0,SW,10.4,-,N/A,,Overcast,220,2013-01-17 04:26:00
11:51 PM,28.9,24.1,82,29.75,10.0,SW,9.2,-,N/A,,Overcast,230,2013-01-17 04:51:00